FW0878 Weather Reports


Display with metric or nautical units.
time (UTC)temp
F
wind
direction
speed
MPH
gust
MPH
rain 1hr
in
rain 24hr
in
rain mn
in
humidity
%
barometer
mb
20260901070307 68 336 1.0 6.0 0.00 0.00 0.00 50 1013.4
20260901065807 68 250 2.0 6.0 0.00 0.00 0.00 50 1013.3
20260901064807 69 21 2.0 7.0 0.00 0.00 0.00 49 1013.2
20260901063807 69 269 2.0 7.0 0.00 0.00 0.00 48 1013.4
20260901063306 69 316 3.0 9.0 0.00 0.00 0.00 48 1013.4
20260901062808 69 67 5.0 9.0 0.00 0.00 0.00 48 1013.5
20260901061807 69 337 3.0 8.0 0.00 0.00 0.00 47 1013.4
20260901061306 69 270 2.0 8.0 0.00 0.00 0.00 47 1013.5
20260901060807 69 45 3.0 7.0 0.00 0.00 0.00 47 1013.5
20260901060306 69 66 3.0 13.0 0.00 0.00 0.00 47 1013.3
20260901055807 69 315 2.0 7.0 0.00 0.00 0.00 48 1013.2
20260901055307 69 227 1.0 6.0 0.00 0.00 0.00 47 1013.2
20260901054807 69 2 2.0 9.0 0.00 0.00 0.00 46 1013.4
20260901054307 69 271 5.0 9.0 0.00 0.00 0.00 45 1013.4
20260901053806 69 357 2.0 6.0 0.00 0.00 0.00 45 1013.3
20260901052806 70 291 3.0 10.0 0.00 0.00 0.00 45 1013.2
20260901052307 70 335 2.0 10.0 0.00 0.00 0.00 44 1012.9
20260901051806 70 313 5.0 13.0 0.00 0.00 0.00 43 1012.9
20260901051306 70 66 4.0 10.0 0.00 0.00 0.00 43 1013.0
20260901050807 71 318 3.0 14.0 0.00 0.00 0.00 44 1013.0
20260901050307 71 0 5.0 13.0 0.00 0.00 0.00 43 1013.0
20260901045806 71 338 5.0 9.0 0.00 0.00 0.00 42 1012.9
20260901045307 71 340 4.0 15.0 0.00 0.00 0.00 41 1012.7
20260901044806 71 338 6.0 15.0 0.00 0.00 0.00 41 1012.7
20260901044307 72 138 4.0 10.0 0.00 0.00 0.00 41 1013.0
20260901043806 72 339 4.0 15.0 0.00 0.00 0.00 40 1012.9
20260901043307 72 22 5.0 16.0 0.00 0.00 0.00 39 1013.0
20260901042806 73 338 4.0 9.0 0.00 0.00 0.00 38 1013.1
20260901042306 73 273 4.0 10.0 0.00 0.00 0.00 39 1013.3
20260901041307 73 45 3.0 10.0 0.00 0.00 0.00 38 1013.6
20260901040807 73 294 3.0 8.0 0.00 0.00 0.00 37 1013.9
20260901040307 73 251 5.0 15.0 0.00 0.00 0.00 36 1013.8
20260901035806 73 291 6.0 15.0 0.00 0.00 0.00 37 1014.0
20260901035306 73 268 5.0 13.0 0.00 0.00 0.00 37 1013.9
20260901034807 74 358 6.0 14.0 0.00 0.00 0.00 36 1014.0
20260901034307 73 335 5.0 9.0 0.00 0.00 0.00 37 1013.9
20260901033807 73 21 3.0 14.0 0.00 0.00 0.00 37 1014.1
20260901032807 73 358 6.0 8.0 0.00 0.00 0.00 38 1014.8
20260901032307 73 273 4.0 10.0 0.00 0.00 0.00 38 1014.7
20260901031807 73 294 5.0 12.0 0.00 0.00 0.00 38 1014.7
20260901031307 73 339 5.0 15.0 0.00 0.00 0.00 38 1014.9
20260901030307 73 227 5.0 10.0 0.00 0.00 0.00 43 1015.2
20260901025806 73 274 4.0 12.0 0.00 0.00 0.00 43 1014.9
20260901025307 73 336 4.0 7.0 0.00 0.00 0.00 42 1015.3
20260901024808 73 116 2.0 10.0 0.00 0.00 0.00 44 1015.2
20260901024307 72 316 3.0 14.0 0.00 0.00 0.00 44 1015.2
20260901023807 72 315 6.0 14.0 0.00 0.00 0.00 43 1015.4
20260901023306 72 251 6.0 13.0 0.00 0.00 0.00 44 1015.7
20260901022807 72 337 5.0 13.0 0.00 0.00 0.00 43 1015.7
20260901022306 73 94 4.0 9.0 0.00 0.00 0.00 43 1015.8
20260901021806 72 135 3.0 10.0 0.00 0.00 0.00 43 1015.7
20260901020807 73 313 3.0 12.0 0.00 0.00 0.00 43 1016.0
20260901020306 73 315 4.0 13.0 0.00 0.00 0.00 42 1016.1
20260901015807 73 225 4.0 12.0 0.00 0.00 0.00 39 1016.2
20260901015307 74 268 3.0 9.0 0.00 0.00 0.00 41 1016.4
20260901014807 73 250 3.0 7.0 0.00 0.00 0.00 40 1016.5
20260901014307 73 228 3.0 8.0 0.00 0.00 0.00 40 1016.6
20260901013307 72 359 5.0 12.0 0.00 0.00 0.00 41 1016.7
20260901012806 72 161 3.0 7.0 0.00 0.00 0.00 42 1016.8
20260901012307 72 250 3.0 12.0 0.00 0.00 0.00 42 1016.8
20260901011807 72 356 2.0 7.0 0.00 0.00 0.00 41 1017.1
20260901011307 71 335 3.0 12.0 0.00 0.00 0.00 41 1017.1
20260901010807 71 108 7.0 17.0 0.00 0.00 0.00 41 1017.3
20260901010307 71 247 3.0 8.0 0.00 0.00 0.00 40 1017.3
20260901005307 71 272 5.0 12.0 0.00 0.00 0.00 43 1017.1
20260901004807 70 21 6.0 13.0 0.00 0.00 0.00 45 1017.1
20260901004307 70 248 6.0 13.0 0.00 0.00 0.00 46 1017.2
20260901003307 68 342 5.0 13.0 0.00 0.00 0.00 51 1017.2
20260901002806 68 341 5.0 13.0 0.00 0.00 0.00 51 1017.6
20260901002307 67 338 6.0 17.0 0.00 0.00 0.00 51 1017.7
20260901001306 67 321 6.0 20.0 0.00 0.00 0.00 53 1018.0
20260901000807 67 1 6.0 13.0 0.00 0.00 0.00 54 1018.0
20260831235806 65 203 6.0 13.0 0.00 0.00 0.00 58 1018.5
20260831235307 65 45 6.0 18.0 0.00 0.00 0.00 59 1018.4
20260831234806 64 315 5.0 12.0 0.00 0.00 0.00 63 1018.4
20260831234307 64 315 5.0 12.0 0.00 0.00 0.00 63 1018.6
20260831233807 63 357 5.0 10.0 0.00 0.00 0.00 66 1018.6
20260831233307 63 43 5.0 13.0 0.00 0.00 0.00 67 1018.7
20260831232806 62 21 5.0 9.0 0.00 0.00 0.00 67 1018.7
20260831232306 62 43 4.0 12.0 0.00 0.00 0.00 68 1018.8
20260831231806 62 318 6.0 13.0 0.00 0.00 0.00 69 1019.1
20260831231306 61 341 5.0 13.0 0.00 0.00 0.00 70 1019.4
20260831230806 61 336 5.0 9.0 0.00 0.00 0.00 70 1019.5
20260831230307 61 1 3.0 13.0 0.00 0.00 0.00 71 1019.6
20260831225807 61 337 4.0 12.0 0.00 0.00 0.00 71 1019.9
20260831225307 61 24 6.0 9.0 0.00 0.00 0.00 71 1020.1
20260831224806 61 294 5.0 9.0 0.00 0.00 0.00 71 1020.2
20260831223807 60 61 4.0 9.0 0.00 0.00 0.00 72 1020.2
20260831223306 60 18 4.0 9.0 0.00 0.00 0.00 74 1020.2
20260831222807 59 338 3.0 9.0 0.00 0.00 0.00 74 1020.2
20260831222307 58 23 5.0 8.0 0.00 0.00 0.00 75 1020.4
20260831221806 58 315 3.0 8.0 0.00 0.00 0.00 76 1020.4
20260831221306 57 19 2.0 6.0 0.00 0.00 0.00 78 1020.6
20260831220806 56 21 2.0 6.0 0.00 0.00 0.00 82 1020.6
20260831215807 54 0 0.0 1.0 0.00 0.00 0.00 91 1020.9
20260831215307 53 0 0.0 1.0 0.00 0.00 0.00 92 1020.8
20260831214807 52 0 0.0 1.0 0.00 0.00 0.00 93 1021.1
20260831214307 51 0 0.0 0.0 0.00 0.00 0.00 93 1021.0
20260831213806 50 0 0.0 0.0 0.00 0.00 0.00 93 1020.9
20260831213306 50 0 0.0 0.0 0.00 0.00 0.00 93 1020.8
20260831212806 50 0 0.0 0.0 0.00 0.00 0.00 93 1020.9
20260831211807 50 0 0.0 0.0 0.00 0.00 0.00 93 1020.7
20260831211308 50 0 0.0 0.0 0.00 0.00 0.00 93 1020.8
20260831210807 50 0 0.0 0.0 0.00 0.00 0.00 93 1020.7
20260831210308 50 0 0.0 0.0 0.00 0.00 0.00 93 1020.8
20260831204807 51 0 0.0 1.0 0.00 0.00 0.00 93 1020.7
20260831204306 51 0 0.0 1.0 0.00 0.00 0.00 93 1020.9
20260831203807 51 0 0.0 2.0 0.00 0.00 0.00 93 1020.8
20260831203307 51 359 1.0 2.0 0.00 0.00 0.00 93 1020.6
20260831202806 51 338 1.0 2.0 0.00 0.00 0.00 93 1020.5
20260831202307 51 45 0.0 2.0 0.00 0.00 0.00 93 1020.6
20260831201807 51 0 0.0 5.0 0.00 0.00 0.00 93 1020.4
20260831201307 51 21 1.0 5.0 0.00 0.00 0.00 93 1020.6
20260831200806 51 0 0.0 1.0 0.00 0.00 0.00 93 1021.0
20260831200307 51 44 1.0 1.0 0.00 0.00 0.00 93 1020.9
20260831195807 51 315 1.0 1.0 0.00 0.00 0.00 93 1021.1
20260831194306 52 339 1.0 3.0 0.00 0.00 0.00 93 1020.8
20260831193807 52 338 0.0 2.0 0.00 0.00 0.00 94 1020.8
20260831193307 52 20 1.0 2.0 0.00 0.00 0.00 94 1020.9
20260831192806 52 340 1.0 3.0 0.00 0.00 0.00 94 1021.0
20260831192307 52 338 1.0 3.0 0.00 0.00 0.00 94 1020.8
20260831191308 51 0 0.0 2.0 0.00 0.00 0.00 94 1021.0
20260831190806 51 315 0.0 1.0 0.00 0.00 0.00 94 1021.0
20260831190306 52 22 0.0 0.0 0.00 0.00 0.00 94 1020.9
20260831185307 52 1 1.0 2.0 0.00 0.00 0.00 94 1021.0
20260831184810 52 22 0.0 2.0 0.00 0.00 0.00 94 1021.1
20260831184307 52 3 1.0 3.0 0.00 0.00 0.00 94 1021.0
20260831183807 51 1 1.0 5.0 0.00 0.00 0.00 94 1021.0
20260831183306 50 22 2.0 5.0 0.00 0.00 0.00 94 1021.2
20260831182807 46 43 0.0 1.0 0.00 0.00 0.00 94 1021.2
20260831182307 46 292 0.0 0.0 0.00 0.00 0.00 94 1021.2
20260831181806 46 292 0.0 0.0 0.00 0.00 0.00 94 1021.3
20260831180806 45 292 0.0 0.0 0.00 0.00 0.00 93 1021.8
20260831180306 45 292 0.0 0.0 0.00 0.00 0.00 93 1021.8
20260831175806 45 292 0.0 0.0 0.00 0.00 0.00 93 1021.9
20260831175307 45 292 0.0 0.0 0.00 0.00 0.00 93 1021.8
20260831174807 45 292 0.0 0.0 0.00 0.00 0.00 93 1022.0
20260831174306 45 292 0.0 0.0 0.00 0.00 0.00 93 1021.8
20260831173806 45 292 0.0 0.0 0.00 0.00 0.00 93 1021.9
20260831173307 45 292 0.0 0.0 0.00 0.00 0.00 93 1022.0
20260831172809 45 292 0.0 0.0 0.00 0.00 0.00 93 1022.2
20260831172307 45 292 0.0 0.0 0.00 0.00 0.00 93 1022.1
20260831171806 45 292 0.0 0.0 0.00 0.00 0.00 93 1022.2
20260831171306 46 292 0.0 0.0 0.00 0.00 0.00 93 1022.2
20260831170307 46 292 0.0 0.0 0.00 0.00 0.00 93 1022.3
20260831165807 46 292 0.0 0.0 0.00 0.00 0.00 93 1022.6
20260831165306 46 292 0.0 0.0 0.00 0.00 0.00 93 1022.7
20260831164808 46 292 0.0 0.0 0.00 0.00 0.00 93 1022.7
20260831163806 45 292 0.0 0.0 0.00 0.00 0.00 92 1022.8
20260831163307 45 292 0.0 1.0 0.00 0.00 0.00 92 1023.0
20260831162807 45 292 0.0 1.0 0.00 0.00 0.00 93 1023.1
20260831162307 46 292 0.0 0.0 0.00 0.00 0.00 92 1023.2
20260831161806 46 292 0.0 0.0 0.00 0.00 0.00 92 1023.1
20260831161306 45 292 0.0 0.0 0.00 0.00 0.00 92 1023.2
20260831160807 45 292 0.0 0.0 0.00 0.00 0.00 92 1023.3
20260831160307 45 292 0.0 0.0 0.00 0.00 0.00 92 1023.4
20260831155806 45 292 0.0 0.0 0.00 0.00 0.00 92 1023.5
20260831155306 45 292 0.0 1.0 0.00 0.00 0.00 92 1023.5
20260831154806 45 292 0.0 0.0 0.00 0.00 0.00 92 1023.4
20260831154306 45 292 0.0 1.0 0.00 0.00 0.00 92 1023.5
20260831153307 45 292 0.0 1.0 0.00 0.00 0.00 93 1023.7
20260831152806 46 292 0.0 0.0 0.00 0.00 0.00 93 1023.6
20260831152307 46 292 0.0 0.0 0.00 0.00 0.00 93 1023.8
20260831151807 46 292 0.0 0.0 0.00 0.00 0.00 93 1023.7
20260831151307 46 292 0.0 0.0 0.00 0.00 0.00 93 1023.8
20260831150806 46 292 0.0 1.0 0.00 0.00 0.00 93 1023.9
20260831150307 46 292 0.0 1.0 0.00 0.00 0.00 93 1023.9
20260831145806 46 292 0.0 1.0 0.00 0.00 0.00 93 1023.9
20260831145307 46 292 0.0 1.0 0.00 0.00 0.00 93 1024.0
20260831144806 45 292 0.0 1.0 0.00 0.00 0.00 93 1023.9
20260831144308 45 339 0.0 1.0 0.00 0.00 0.00 93 1024.1
20260831143806 45 45 0.0 1.0 0.00 0.00 0.00 93 1024.2
20260831143306 44 68 0.0 1.0 0.00 0.00 0.00 93 1024.0
20260831142807 44 68 0.0 0.0 0.00 0.00 0.00 92 1024.1
20260831142307 44 68 0.0 0.0 0.00 0.00 0.00 92 1024.3
20260831141806 45 68 0.0 0.0 0.00 0.00 0.00 92 1024.4
20260831140808 45 68 0.0 0.0 0.00 0.00 0.00 92 1024.7
20260831140306 45 68 0.0 0.0 0.00 0.00 0.00 92 1024.5
20260831135807 45 68 0.0 0.0 0.00 0.00 0.00 92 1024.8
20260831134806 46 68 0.0 0.0 0.00 0.00 0.00 92 1024.9
20260831134307 46 68 0.0 0.0 0.00 0.00 0.00 92 1025.0
20260831133806 46 68 0.0 0.0 0.00 0.00 0.00 92 1025.1
20260831132806 46 68 0.0 0.0 0.00 0.00 0.00 92 1025.4
20260831131807 46 68 0.0 0.0 0.00 0.00 0.00 92 1025.4
20260831131307 46 68 0.0 0.0 0.00 0.00 0.00 92 1025.4
20260831130806 46 68 0.0 0.0 0.00 0.00 0.00 91 1025.5
20260831130306 46 68 0.0 1.0 0.00 0.00 0.00 91 1025.5
20260831125806 46 68 0.0 1.0 0.00 0.00 0.00 92 1025.6
20260831125307 46 68 0.0 0.0 0.00 0.00 0.00 91 1025.8
20260831124807 46 68 0.0 0.0 0.00 0.00 0.00 91 1025.7
20260831124307 46 68 0.0 0.0 0.00 0.00 0.00 91 1025.8
20260831123307 47 68 0.0 0.0 0.00 0.00 0.00 91 1026.0
20260831122307 47 68 0.0 0.0 0.00 0.00 0.00 91 1026.2
20260831121806 47 68 0.0 1.0 0.00 0.00 0.00 91 1025.9
20260831121306 47 68 0.0 0.0 0.00 0.00 0.00 90 1026.1
20260831120806 47 68 0.0 0.0 0.00 0.00 0.00 90 1026.1
20260831120307 47 68 0.0 0.0 0.00 0.00 0.00 90 1026.3
20260831115808 47 68 0.0 0.0 0.00 0.00 0.00 90 1026.3
20260831115307 48 68 0.0 0.0 0.00 0.00 0.00 90 1026.1
20260831114807 48 68 0.0 0.0 0.00 0.00 0.00 90 1026.4
20260831114306 48 68 0.0 0.0 0.00 0.00 0.00 90 1026.3
20260831113806 48 68 0.0 0.0 0.00 0.00 0.00 90 1026.3
20260831113307 48 68 0.0 0.0 0.00 0.00 0.00 90 1026.4
20260831112806 48 68 0.0 0.0 0.00 0.00 0.00 89 1026.4
20260831111807 48 68 0.0 0.0 0.00 0.00 0.00 89 1026.2
20260831111307 48 68 0.0 0.0 0.00 0.00 0.00 89 1026.3
20260831110806 48 68 0.0 0.0 0.00 0.00 0.00 89 1026.4
20260831110308 48 68 0.0 0.0 0.00 0.00 0.00 89 1026.6
20260831105807 49 68 0.0 0.0 0.00 0.00 0.00 88 1026.6
20260831105306 49 68 0.0 0.0 0.00 0.00 0.00 88 1026.7
20260831104307 49 68 0.0 0.0 0.00 0.00 0.00 88 1026.6
20260831103807 49 68 0.0 0.0 0.00 0.00 0.00 87 1026.5
20260831103306 49 68 0.0 0.0 0.00 0.00 0.00 87 1026.8
20260831102307 50 68 0.0 0.0 0.00 0.00 0.00 87 1026.9
20260831101808 51 68 0.0 0.0 0.00 0.00 0.00 87 1026.7
20260831101307 51 68 0.0 0.0 0.00 0.00 0.00 87 1026.9
20260831100806 51 68 0.0 0.0 0.00 0.00 0.00 86 1027.1
20260831100306 51 68 0.0 0.0 0.00 0.00 0.00 86 1027.0
20260831095806 51 68 0.0 0.0 0.00 0.00 0.00 85 1026.9
20260831095307 51 68 0.0 0.0 0.00 0.00 0.00 85 1026.9
20260831094807 52 68 0.0 0.0 0.00 0.00 0.00 83 1026.9
20260831093806 52 68 0.0 0.0 0.00 0.00 0.00 83 1026.9
20260831093307 53 68 0.0 1.0 0.00 0.00 0.00 83 1027.0
20260831091806 53 68 0.0 0.0 0.00 0.00 0.00 82 1027.1
20260831091306 53 68 0.0 0.0 0.00 0.00 0.00 82 1027.3
20260831090808 53 68 0.0 0.0 0.00 0.00 0.00 82 1027.1
20260831090308 53 68 0.0 1.0 0.00 0.00 0.00 82 1027.0
20260831085807 53 68 0.0 1.0 0.00 0.00 0.00 82 1027.1
20260831084806 53 91 0.0 1.0 0.00 0.00 0.00 81 1026.9
20260831084306 54 112 0.0 1.0 0.00 0.00 0.00 80 1027.1
20260831083806 54 90 0.0 1.0 0.00 0.00 0.00 80 1027.0
20260831083307 54 90 0.0 1.0 0.00 0.00 0.00 80 1027.0
20260831082807 55 90 0.0 1.0 0.00 0.00 0.00 79 1027.1
20260831081307 55 90 1.0 1.0 0.00 0.00 0.00 77 1027.1
20260831080806 56 71 1.0 3.0 0.00 0.00 0.00 76 1027.3
20260831080307 56 135 1.0 3.0 0.00 0.00 0.00 75 1027.4
20260831075807 56 90 0.0 2.0 0.00 0.00 0.00 75 1027.2
20260831075308 57 111 1.0 2.0 0.00 0.00 0.00 74 1027.2
20260831074807 57 92 1.0 3.0 0.00 0.00 0.00 74 1027.2
20260831074308 58 112 1.0 2.0 0.00 0.00 0.00 73 1027.3
20260831073806 58 45 1.0 2.0 0.00 0.00 0.00 72 1027.3
20260831073307 58 91 1.0 2.0 0.00 0.00 0.00 72 1027.3
20260831072306 59 135 1.0 3.0 0.00 0.00 0.00 71 1027.2
20260831071309 60 110 2.0 3.0 0.00 0.00 0.00 70 1027.2
20260831070806 60 155 1.0 3.0 0.00 0.00 0.00 69 1027.4